Weather History for Charlevoix, MI

Change the Weather History Date:

Saturday, February 15, 2014

  Actual Average Record
Temperature  
Mean Temperature 6 °F -  
Max Temperature 11 °F 31 °F 41 °F (2002)
Min Temperature 1 °F 15 °F -2 °F (2003)
Degree Days  
Heating Degree Days 59    
Moisture  
Dew Point 2 °F    
Average Humidity 77    
Maximum Humidity 86    
Minimum Humidity 64    
Precipitation  
Precipitation 0.00 in - - ()
Sea Level Pressure  
Sea Level Pressure 30.00 in    
Wind  
Wind Speed 6 mph (WNW)    
Max Wind Speed 10 mph    
Max Gust Speed -    
Visibility 9 miles    
Events Snow    
Averages and records for this station are not official NWS values.
T = Trace of Precipitation, MM = Missing Value Source: NWS Daily Summary

Daily Weather History Graph

Daily Weather History Graph

Search for Another Location

Airport:

Trip Planner

Search our weather history database for the weather conditions in past years. The results will help you decide how hot, cold, wet, or windy it might be!

Date:

Astronomy

Feb. 15, 2014 Rise Set
Actual Time 7:42 AM EST 6:08 PM EST
Civil Twilight 7:12 AM EST 6:38 PM EST
Nautical Twilight 6:37 AM EST 7:13 PM EST
Astronomical Twilight 6:03 AM EST 7:47 PM EST
Moon 7:13 PM EST (2/15) 7:37 AM EST (2/15)
Length of Visible Light 11h 26m
Length of Day
10h 26m
Full, 100% of the Moon is Illuminated
Feb 15
Full
Feb 22
Last Quarter
Mar 1
New
Mar 8
First Quarter
Mar 16
Full

Hourly Weather History & Observations

Time (EST) Temp. Windchill Dew Point Humidity Pressure Visibility Wind Dir Wind Speed Gust Speed Precip Events Conditions
12:15 AM 6.8 °F -5.9 °F 2.3 °F 82% 29.87 in 10.0 mi WNW 8.1 mph - N/A Snow Light Snow
12:34 AM 7.0 °F -5.7 °F 3.0 °F 84% 29.88 in 10.0 mi West 8.1 mph - N/A Snow Light Snow
12:55 AM 8.6 °F -5.5 °F 4.6 °F 84% 29.88 in 10.0 mi West 10.4 mph - N/A   Overcast
1:14 AM 9.1 °F -4.9 °F 4.8 °F 83% 29.88 in 10.0 mi West 10.4 mph - N/A   Overcast
1:34 AM 9.5 °F -3.5 °F 5.0 °F 82% 29.89 in 10.0 mi WNW 9.2 mph - N/A   Overcast
1:55 AM 10.2 °F -2.7 °F 5.0 °F 79% 29.89 in 7.0 mi WNW 9.2 mph - N/A   Overcast
2:14 AM 10.2 °F 0.6 °F 5.0 °F 79% 29.89 in 5.0 mi WNW 5.8 mph - N/A   Haze
2:35 AM 10.0 °F -2.9 °F 5.0 °F 80% 29.90 in 5.0 mi NW 9.2 mph - N/A Snow Light Snow
2:55 AM 9.5 °F -3.5 °F 4.8 °F 81% 29.90 in 7.0 mi NW 9.2 mph - N/A Snow Light Snow
3:14 AM 9.0 °F -2.2 °F 4.6 °F 83% 29.91 in 7.0 mi WNW 6.9 mph - N/A Snow Light Snow
3:35 AM 8.4 °F -3.9 °F 4.1 °F 83% 29.92 in 10.0 mi WNW 8.1 mph - N/A   Overcast
3:55 AM 7.5 °F -3.9 °F 3.2 °F 82% 29.93 in 10.0 mi WNW 6.9 mph - N/A   Overcast
4:14 AM 6.4 °F -6.3 °F 2.3 °F 83% 29.94 in 10.0 mi NW 8.1 mph - N/A   Overcast
4:35 AM 5.0 °F -5.6 °F 1.0 °F 84% 29.95 in 10.0 mi NW 5.8 mph - N/A   Scattered Clouds
4:55 AM 4.5 °F -2.7 °F 0.7 °F 84% 29.96 in 10.0 mi NNW 3.5 mph - N/A   Clear
5:14 AM 3.2 °F - -0.4 °F 85% 29.97 in 10.0 mi Calm Calm - N/A   Clear
5:35 AM 3.2 °F - -0.6 °F 84% 29.97 in 10.0 mi Calm Calm - N/A   Clear
5:54 AM 1.8 °F -7.8 °F -1.8 °F 85% 29.98 in 10.0 mi WNW 4.6 mph - N/A   Clear
6:14 AM 2.7 °F -9.7 °F -0.8 °F 86% 29.99 in 10.0 mi WNW 6.9 mph - N/A   Clear
6:35 AM 2.7 °F -8.4 °F -1.1 °F 84% 29.99 in 10.0 mi WNW 5.8 mph - N/A   Clear
6:54 AM 3.0 °F -6.4 °F -1.5 °F 82% 29.99 in 10.0 mi WNW 4.6 mph - N/A   Clear
7:14 AM 2.7 °F -9.7 °F -1.8 °F 81% 30.00 in 10.0 mi WNW 6.9 mph - N/A   Clear
7:35 AM 3.2 °F -9.1 °F -1.7 °F 80% 30.00 in 10.0 mi WNW 6.9 mph - N/A   Clear
7:54 AM 2.8 °F -9.5 °F -1.8 °F 81% 30.00 in 10.0 mi WNW 6.9 mph - N/A   Clear
8:15 AM 1.9 °F -9.2 °F -3.1 °F 79% 30.01 in 10.0 mi West 5.8 mph - N/A   Clear
8:35 AM 2.8 °F -8.2 °F -2.2 °F 79% 30.02 in 10.0 mi WNW 5.8 mph - N/A   Clear
8:54 AM 4.1 °F -5.1 °F -1.7 °F 77% 30.02 in 10.0 mi WNW 4.6 mph - N/A   Clear
9:15 AM 5.0 °F -4.1 °F -1.3 °F 75% 30.02 in 10.0 mi NW 4.6 mph - N/A   Clear
9:35 AM 5.4 °F -3.6 °F -1.3 °F 74% 30.02 in 10.0 mi NW 4.6 mph - N/A   Clear
9:54 AM 5.7 °F -1.3 °F -0.9 °F 74% 30.02 in 10.0 mi NW 3.5 mph - N/A   Clear
10:15 AM 5.9 °F -4.5 °F -0.8 °F 74% 30.03 in 10.0 mi NW 5.8 mph - N/A   Clear
10:34 AM 6.6 °F -7.1 °F -0.6 °F 72% 30.04 in 10.0 mi WNW 9.2 mph - N/A   Clear
10:54 AM 7.0 °F -3.3 °F -0.8 °F 71% 30.04 in 10.0 mi WNW 5.8 mph - N/A   Clear
11:15 AM 7.7 °F -3.7 °F -0.2 °F 70% 30.04 in 10.0 mi WNW 6.9 mph - N/A   Clear
11:34 AM 8.2 °F -0.3 °F 0.5 °F 71% 30.05 in 10.0 mi WNW 4.6 mph - N/A   Clear
11:54 AM 8.1 °F -0.5 °F 0.7 °F 72% 30.05 in 10.0 mi NW 4.6 mph - N/A   Clear
12:15 PM 9.9 °F -1.1 °F 0.5 °F 66% 30.05 in 10.0 mi West 6.9 mph - N/A   Clear
12:34 PM 10.4 °F 2.2 °F 0.5 °F 64% 30.05 in 10.0 mi WNW 4.6 mph - N/A   Clear
12:55 PM 10.0 °F -2.9 °F 0.5 °F 65% 30.05 in 10.0 mi WNW 9.2 mph - N/A   Clear
1:15 PM 10.2 °F -1.7 °F 1.2 °F 67% 30.04 in 10.0 mi West 8.1 mph - N/A   Clear
1:34 PM 10.4 °F -1.5 °F 1.6 °F 68% 30.03 in 10.0 mi West 8.1 mph - N/A   Clear
1:55 PM 10.4 °F -0.4 °F 1.9 °F 69% 30.03 in 10.0 mi WNW 6.9 mph - N/A   Clear
2:15 PM 10.8 °F 2.7 °F 2.1 °F 68% 30.02 in 10.0 mi WNW 4.6 mph - N/A   Clear
2:34 PM 11.1 °F 3.1 °F 2.3 °F 68% 30.02 in 10.0 mi WNW 4.6 mph - N/A   Clear
2:55 PM 10.9 °F 1.4 °F 3.0 °F 70% 30.02 in 10.0 mi NW 5.8 mph - N/A   Clear
3:14 PM 11.3 °F 1.9 °F 3.2 °F 70% 30.02 in 10.0 mi WNW 5.8 mph - N/A   Scattered Clouds
3:35 PM 10.9 °F 1.4 °F 3.4 °F 72% 30.02 in 10.0 mi NNW 5.8 mph - N/A   Mostly Cloudy
3:55 PM 11.1 °F 1.7 °F 3.7 °F 72% 30.02 in 10.0 mi WNW 5.8 mph - N/A   Overcast
4:14 PM 10.8 °F 1.2 °F 3.6 °F 73% 30.03 in 10.0 mi NW 5.8 mph - N/A   Mostly Cloudy
4:35 PM 10.4 °F 0.8 °F 4.1 °F 76% 30.03 in 10.0 mi NNW 5.8 mph - N/A   Overcast
4:55 PM 10.2 °F 2.0 °F 4.1 °F 76% 30.04 in 10.0 mi North 4.6 mph - N/A   Overcast
5:14 PM 10.4 °F - 4.5 °F 77% 30.04 in 10.0 mi Calm Calm - N/A   Overcast
5:35 PM 10.2 °F - 4.5 °F 78% 30.04 in 10.0 mi Calm Calm - N/A   Overcast
5:54 PM 10.2 °F - 4.1 °F 76% 30.04 in 10.0 mi Calm Calm - N/A   Overcast
6:14 PM 10.0 °F - 4.1 °F 77% 30.04 in 10.0 mi Calm Calm - N/A   Mostly Cloudy
6:35 PM 9.9 °F - 4.1 °F 78% 30.05 in 10.0 mi Calm Calm - N/A   Mostly Cloudy
6:54 PM 10.0 °F - 4.5 °F 78% 30.04 in 10.0 mi Calm Calm - N/A   Overcast
7:14 PM 10.0 °F 3.6 °F 4.3 °F 78% 30.05 in 10.0 mi ESE 3.5 mph - N/A   Mostly Cloudy
7:35 PM 10.0 °F - 4.6 °F 79% 30.05 in 10.0 mi Calm Calm - N/A   Mostly Cloudy
7:54 PM 9.5 °F - 4.1 °F 79% 30.06 in 10.0 mi Calm Calm - N/A   Overcast
8:14 PM 10.0 °F - 4.8 °F 79% 30.06 in 10.0 mi Calm Calm - N/A   Overcast
8:35 PM 9.5 °F - 4.1 °F 79% 30.05 in 10.0 mi Calm Calm - N/A   Overcast
8:54 PM 10.0 °F - 4.5 °F 78% 30.05 in 10.0 mi Calm Calm - N/A   Overcast
9:14 PM 10.2 °F - 4.6 °F 78% 30.05 in 10.0 mi Calm Calm - N/A   Overcast
9:35 PM 10.2 °F - 4.6 °F 78% 30.04 in 10.0 mi Calm Calm - N/A   Overcast
9:54 PM 10.4 °F - 4.8 °F 78% 30.04 in 10.0 mi Calm Calm - N/A   Overcast
10:15 PM 10.2 °F 2.0 °F 4.5 °F 78% 30.04 in 10.0 mi ESE 4.6 mph - N/A   Overcast
10:35 PM 10.4 °F 2.2 °F 4.6 °F 78% 30.03 in 10.0 mi ESE 4.6 mph - N/A   Overcast
10:54 PM 10.8 °F 4.5 °F 4.8 °F 77% 30.03 in 7.0 mi East 3.5 mph - N/A Snow Light Snow
11:15 PM 10.6 °F 2.5 °F 5.4 °F 79% 30.02 in 3.0 mi East 4.6 mph - N/A Snow Light Snow
11:35 PM 10.4 °F 2.2 °F 5.9 °F 82% 30.01 in 3.0 mi ESE 4.6 mph - N/A Snow Light Snow
11:54 PM 10.4 °F 2.2 °F 6.4 °F 84% 30.00 in 3.0 mi ESE 4.6 mph - N/A Snow Light Snow